sat.trackr.live / text

‹ back to catalog

FLOCK 4Q-16

NORAD 58271 · 2023-174R

PAYLOAD ACTIVE UNKNOWN

§ Identity

Operator
Country
US
Launch date
2023-11-11
Launch site
AFWTR
Launch vehicle
Mass (kg)
RCS (m²)

Purposes: earth_obs

External: N2YO · Heavens-Above · Gunter

§ Orbital elements

Epoch: 2026-05-24T12:28:52.957632Z

Period
93.02 min
Inclination
97.3825°
Eccentricity
0.0005341
Mean motion
15.48080680 rev/d
Perigee alt
418.7 km
Apogee alt
426.0 km
Semi-major
6,800.5 km
B*
4.5785e-4
RAAN
232.1005°
Arg perigee
233.8889°
Mean anomaly
126.1868°
Rev number
14,191

§ Raw data

FLOCK 4Q-161 58271U 23174R   26144.52005738  .00023952  00000+0  45785-3 0  99992 58271  97.3825 232.1005 0005341 233.8889 126.1868 15.48080680141914

JSON: /api/v1/satellites/58271 · /tle

For live sub-satellite position, see the globe view (requires WebGL).

§ Visibility from observer

Set your observer location to see the next 7 days of passes ≥ 10°. The values pass through the URL so the page stays shareable.

No JS? Fill the form by hand. The geolocation button needs JavaScript.